Tracking 23726 objects as of 16-Oct-2021
HD Live streaming from Space Station
objects crossing your sky now

DELTA 4 R/B

Track DELTA 4 R/B now!


NORAD ID: 37233
Int'l Code: 2010-063B
Perigee: 33,813.4 km
Apogee: 35,725.1 km
Inclination: 5.3 °
Period: 1,384.1 minutes
Semi major axis: 41140 km
RCS: Unknown
Launch date: November 21, 2010
Source: United States (US)
Launch site: AIR FORCE EASTERN TEST RANGE (AFETR)

Note: This is a ROCKET BODY
aabbcc
Your satellite tracking list
Your tracking list is empty




NASA's NSSDC Master Catalog

Two Line Element Set (TLE):
1 37233U 10063B   21288.05495999 -.00000254  00000-0  00000-0 0  9991
2 37233   5.2974 118.7607 0232344 356.7131   3.3749  1.04040558  8552
Source of the keplerian elements: McCants